DO-64
1 32789U 08021G 14176.79327669 .00002494 00000-0 24216-3 0 9928
2 32789 097.7213 237.6592 0013868 133.3161 293.5646 14.93459730333782
CO-66
1 32791U 08021J 14177.07493495 .00000632 00000-0 77075-4 0 9490
2 32791 097.7006 229.0996 0015710 151.5315 208.6762 14.86600181333370
RS-30
1 32953U 08025A 14177.56714416 .00000010 00000-0 00000+0 0 464
2 32953 082.5017 195.3772 0019929 132.9194 227.3560 12.43048535276421
METEOR-M
1 35865U 09049A 14177.72498869 -.00000036 00000-0 29633-5 0 6582
2 35865 098.5492 224.8483 0003409 071.9428 288.2111 14.21924135247697
RS-38
1 35869U 09049E 14177.71726904 -.00000001 00000-0 18705-4 0 5813
2 35869 098.5422 224.6363 0005602 075.9209 071.2210 14.22214223247722
JUGNU
1 37839U 11058B 14177.44432318 .00000310 00000-0 23621-4 0 6432
2 37839 019.9597 198.8310 0019210 086.0875 059.7541 14.12314978139867
SRMSAT
1 37841U 11058D 14176.45894975 .00000293 00000-0 16263-4 0 6463
2 37841 019.9701 224.2947 0012210 015.0995 109.6014 14.10355780139522
RAX-2
1 37853U 11061D 14177.69152233 .00003047 00000-0 21486-3 0 8421
2 37853 101.7129 211.8650 0216230 029.3274 081.3514 14.89551944144071
AUBIESAT
1 37854U 11061E 14176.66393122 .00003236 00000-0 22077-3 0 8238
2 37854 101.7172 212.2371 0214183 029.5056 085.9389 14.90873188143977
HRBE
1 37855U 11061F 14177.04389899 .00003345 00000-0 23052-3 0 8312
2 37855 101.7174 212.1491 0216260 029.7021 001.6075 14.90185253144005
RS-39
1 38051U 11062C 14177.74150796 .00030730 00000-0 35736-3 0 6690
2 38051 051.6242 174.6391 0001031 272.0950 251.8235 15.61443233135603
E-STAR
1 38079U 12006C 14177.66083427 .00038521 38354-5 44026-3 0 8931
2 38079 069.4534 326.6378 0365630 341.0998 123.6228 15.10250896124897
GOLIAT
1 38085U 12006J 14177.80036863 .00035291 37260-5 42911-3 0 1521
2 38085 069.4567 333.5806 0389070 344.6386 014.3217 15.04268478124721
HORYU-2
1 38340U 12025D 14176.85424386 .00000462 00000-0 80875-4 0 8901
2 38340 098.2620 134.1972 0012686 143.4081 216.7992 14.72550471113072
RS-40
1 38735U 12041C 14177.30298756 .00000024 00000-0 10000-3 0 6058
2 38735 082.4775 281.8559 0016295 232.1950 127.7654 12.42560408 86710
PROITERES
1 38756U 12047B 14177.75658103 .00000208 00000-0 38921-4 0 9591
2 38756 098.2288 266.2074 0011978 359.3740 000.7451 14.74979516 96591
BEESAT-3
1 39134U 13015E 14177.28592868 .00002536 00000-0 18699-3 0 6234
2 39134 064.8736 109.7497 0028719 305.5309 054.3128 15.05358972 65037
BEESAT-2
1 39136U 13015G 14177.35359970 .00002205 00000-0 16688-3 0 6081
2 39136 064.8728 110.0382 0028460 305.3190 054.5263 15.04738842 65036
LO-75
1 39382U 13064C 14177.83243018 .00031701 00000-0 64160-3 0 2858
2 39382 040.4966 036.4960 0021406 309.4165 050.4605 15.45483814 33554
ZACUBE-1
1 39417U 13066B 14177.37781420 .00000782 00000-0 11189-3 0 3334
2 39417 097.7767 247.6840 0061742 212.1546 147.5909 14.78120217 32059
TRITON-1
1 39427U 13066M 14177.74624151 .00000489 00000-0 90431-4 0 1883
2 39427 097.7644 243.6649 0117386 219.7934 139.4594 14.65401769 31797
DELFIN3XT
1 39428U 13066N 14177.75136052 .00000841 00000-0 15366-3 0 1899
2 39428 097.7597 242.8790 0127730 221.6457 137.4923 14.63311290 31734
GOMX-1
1 39430U 13066Q 14177.71663734 .00000409 00000-0 86955-4 0 5909
2 39430 097.7564 240.7490 0155580 227.5764 131.2192 14.56837308 31606
MO-76
1 39436U 13066W 14176.96407205 .00005979 00000-0 61803-3 0 2492
2 39436 097.7774 250.4410 0025848 214.7308 145.1943 14.90243302 32185
LO-74
1 39440U 13066AA 14177.36991590 .00000596 00000-0 95492-4 0 1858
2 39440 097.7704 245.9454 0083515 215.0125 144.5545 14.73065194 31931
PUCPSAT-1
1 39442U 13066AC 14177.79584244 .00001150 00000-0 13615-3 0 1832
2 39442 097.7799 250.7617 0033814 212.1188 147.7956 14.86108290 31059
LO-78
1 39569U 98067EN 14177.86832943 .00168294 00000-0 70957-3 0 3620
2 39569 051.6393 037.5708 0003063 178.3362 296.2197 15.84425384 18563
SHINAISAT
1 39572U 14009A 14177.88988530 .00023541 00000-0 19484-3 0 1625
2 39572 065.0123 009.2619 0017047 282.8515 077.0734 15.70055454 18634
OPUSAT
1 39575U 14009D 14177.70326300 .00175282 18321-4 49747-3 0 2007
2 39575 065.0003 003.6623 0016613 281.5812 078.3276 15.92971195 18729
TEIKYOSAT
1 39576U 14009E 14177.89939563 .00032584 00000-0 22844-3 0 1667
2 39576 065.0142 007.8024 0016148 295.4786 064.4698 15.73882415 18664
CO-77
1 39577U 14009F 14177.91081322 .00074154 00000-0 34844-3 0 1765
2 39577 065.0107 005.1978 0016183 291.5711 068.3723 15.82548471 18718
STARS-II
1 39579U 14009H 14116.06110564 .20186783 77451-5 52661-3 0 1329
2 39579 064.9886 219.0071 0013010 293.8065 069.6132 16.44611049 9028
SPROUT
1 39770U 14029E 14177.04262583 .00000523 00000-0 71448-4 0 452
2 39770 097.8716 274.0593 0008362 287.0044 073.0261 14.82610162 4857
QB50p2
1 40032U 14033Y 14177.71869647 .00000176 00000-0 27205-4 0 117
2 40032 097.9829 072.3569 0010993 259.7598 100.2352 14.84805510 1004
